Погода в Мэхонгсоне

Таиланд     19°18′21″N   97°57′55″E
темп.,
°C
ветер,
м/с
пор.,
м/с
влажн.,
%
обл.,
%
осадки,
мм/ч
давл.,
гПа
погр.,
м
20 мая, пт
пт2001:00+22всв1291100 0.1 100754
04:00+22всв1190100 0.0 100657
07:00+22всв1290100 0.4 100886
10:00+23св1288100 1.2 1008285
13:00+29ссв2361100 1.6 10051211
16:00+24в118997 3.0 100223
19:00+22юв1195100 6.9 100314
22:00+22с0199100 9.5 100552
21 мая, сб
сб2101:00+21всв0099100 16.5 100446
04:00+21вюв0099100 11.4 100246
07:00+21св0198100 20.6 100462
10:00+22з0098100 9.1 1005106
13:00+22юз1199100 12.9 1004129
16:00+22з0195100 1.4 1002202
19:00+21юв0098100 2.2 100321
22:00+20вюв019961 0.0 100513
22 мая, вс
вс2201:00+20ююв119898 0.0 100419
04:00+20вюв0099100 0.0 100323
07:00+21ююз019894 0.1 100496
10:00+26зюз127336 0.1 1005736
13:00+31з234915 0.2 10011638
16:00+30юз235796 0.5 9991234
19:00+23ююз249381 2.9 100184
22:00+21ююв119899 5.4 100433
23 мая, пн
пн2301:00+21ююз1198100 6.5 100421
04:00+21ю129992 0.9 100476
07:00+21ююз129861 0.9 1004151
10:00+27з126738 0.1 1004919
13:00+32з224721 0.1 10011836
16:00+31зюз224921 0.4 10001479
19:00+24ююв24815 1.1 100290
22:00+22ююв129139 0.1 100441
24 мая, вт
вт2401:00+22ю139396 0.1 100575
04:00+21ююв009798 0.3 100428
07:00+22ююз019432 0.3 1005133
10:00+29з126174 0.1 10061267
13:00+31вюв125698 1.9 10021640
16:00+26вюв1285100 3.2 1001254
19:00+23юв1193100 9.9 100314
22:00+22ююв1198100 2.7 100626